www.pogodaiklimat.ru

Погода и климат >> Архив погоды >> Австралия >> Richmond Airport


ПОГОДА в Richmond Airport

  • Прогноз погоды в Richmond Airport
  • Монитор погоды в Richmond Airport
  • Климат города

АРХИВ ПОГОДЫ в Richmond Airport

Время (UTC), дата Ветер
(напр.,м/с)
 
Видим.   Явления Облачность Т
(С)
Тd
(С)
f
(%)
Тe
(С)
Тes
(С)
Комфортность P
(гПа)
Po
(гПа)
Тmin
(С)
Tmax
(С)
R
(мм)
R24
(мм)
S
(см)
02 14.05 ЮВ 7 н/о н/о +24.4 +0.7 21 +23 +23 комфорт 1018.7 994.7 +6.8
03 14.05 ЮВ 7 н/о н/о +25.4 -1.4 17 +24 +24 комфорт 1017.7 993.7
05 14.05 ЮВ 8 н/о н/о +26.9 -2.8 14 +24 +24 комфорт 1015.9 992.0
06 14.05 В 6 н/о н/о +26.8 -2.9 14 +24 +24 комфорт 1015.8 991.9
08 14.05 ЮВ 5 н/о н/о +22.2 -4.0 17 +21 +21 комфорт 1016.9 993.0
09 14.05 ЮВ 4 н/о н/о +19.9 -4.4 19 +20 +20 1017.7 993.7
11 14.05 ЮВ 6 н/о н/о +14.9 -3.9 27 +14 +14 1019.0 995.0
12 14.05 ЮВ 6 н/о н/о +15.5 -3.4 27 +14 +14 1019.1 995.1
14 14.05 ЮВ 5 н/о н/о +14.4 -2.9 30 +13 +13 1018.7 994.7 +27.5
15 14.05 ЮВ 5 н/о н/о +13.8 -3.5 30 +12 +12 1018.3 994.3
17 14.05 ЮВ 4 н/о н/о +11.0 -3.5 36 +9 +9 1017.8 993.8
18 14.05 В 3 н/о н/о +9.0 -2.9 43 +7 +7 1017.8 993.8
20 14.05 ЮВ 3 н/о н/о +7.2 -2.0 52 +5 +5 1017.8 993.8
21 14.05 ЮВ 2 н/о н/о +6.7 -1.9 54 +5 +5 1018.3 994.3
23 14.05 В 6 н/о н/о +16.7 +1.2 35 +16 +16 1018.8 994.8
00 15.05 В 6 н/о н/о +19.1 +0.2 28 +19 +19 1018.9 994.9
02 15.05 В 5 н/о н/о +25.2 0.0 19 +24 +24 комфорт 1017.5 993.5 +6.3
03 15.05 В 6 н/о н/о +26.0 -0.9 17 +24 +24 комфорт 1016.5 992.6
05 15.05 В 5 н/о н/о +26.9 -1.9 15 +25 +25 комфорт 1015.2 991.3
06 15.05 В 6 н/о н/о +27.2 -2.6 14 +25 +25 комфорт 1015.1 991.2
08 15.05 ЮВ 5 н/о н/о +22.7 -1.4 20 +22 +22 комфорт 1015.7 991.8
09 15.05 ЮВ 5 н/о н/о +20.2 -1.0 24 +20 +20 1016.3 992.4
11 15.05 ЮВ 4 н/о н/о +17.2 -1.0 29 +17 +17 1017.7 993.7
12 15.05 ЮВ 5 н/о н/о +17.5 -0.7 29 +17 +17 1017.6 993.6
14 15.05 ЮВ 5 н/о н/о +16.4 -0.3 32 +16 +16 1017.0 993.1 +27.9
15 15.05 В 3 н/о н/о +12.3 -1.2 39 +11 +11 1016.9 993.0
17 15.05 ЮВ 4 н/о н/о +9.7 -1.6 45 +8 +8 1016.1 992.2
18 15.05 ЮВ 3 н/о н/о +9.6 -1.1 47 +8 +8 1016.0 992.1
20 15.05 В 4 н/о н/о +10.2 -0.9 46 +8 +8 1016.3 992.4
21 15.05 В 3 н/о н/о +8.6 -0.7 52 +7 +7 1017.2 993.2
23 15.05 В 3 н/о н/о +16.5 +0.6 34 +16 +16 1018.4 994.4
00 16.05 СВ 4 н/о н/о +21.4 +4.5 33 +22 +22 комфорт 1018.5 994.5
02 16.05 ЮВ 9 н/о н/о +25.7 +4.8 26 +25 +25 комфорт 1017.0 993.1 +8.2
03 16.05 В 7 н/о н/о +26.6 +2.5 21 +25 +25 комфорт 1016.1 992.2
05 16.05 ЮВ 7 н/о н/о +27.4 +3.8 22 +26 +26 жарко 1014.5 990.6
06 16.05 В 6 н/о н/о +27.3 +3.7 22 +26 +26 жарко 1014.0 990.1
08 16.05 ЮВ 4 н/о н/о +23.6 +2.4 25 +23 +23 комфорт 1014.5 990.6
09 16.05 ЮВ 4 н/о н/о +21.7 +3.4 30 +22 +22 комфорт 1015.1 991.2
11 16.05 ЮВ 5 н/о 5/0
[]
+21.0 +4.1 33 +22 +22 комфорт 1016.5 992.6
12 16.05 ЮВ 6 н/о н/о +21.7 +4.7 33 +22 +22 комфорт 1016.9 993.0
14 16.05 ЮВ 5 н/о 1/0
[]
+19.1 +5.2 40 +19 +19 1016.5 992.6 +28.4
15 16.05 В 5 н/о н/о +18.7 +6.9 46 +19 +19 1016.4 992.5
17 16.05 Ю 4 н/о н/о +14.1 +6.2 59 +13 +13 1015.8 991.9
18 16.05 ЮВ 4 н/о н/о +16.1 +9.1 63 +15 +15 1015.8 991.9
20 16.05 ЮВ 4 н/о 10/10 1500 м
[]
+15.9 +8.6 62 +15 +15 1016.4 992.5
21 16.05 В 5 н/о н/о +17.6 +10.5 63 +17 +17 1017.0 993.1
23 16.05 ЮВ 6 н/о н/о +21.5 +11.8 54 +24 +24 комфорт 1018.2 994.2
00 17.05 ЮВ 7 н/о н/о +22.9 +11.9 50 +25 +25 комфорт 1018.4 994.4
02 17.05 В 8 н/о 1/1 1000 м
[]
+24.8 +12.1 45 +26 +29 жарко 1017.3 993.3 +13.9
03 17.05 В 8 н/о н/о +26.6 +9.9 35 +27 +27 жарко 1016.4 992.5
05 17.05 ЮВ 9 н/о н/о +26.3 +8.8 33 +27 +27 жарко 1015.7 991.8
06 17.05 ЮВ 7 н/о н/о +25.9 +9.3 35 +26 +26 жарко 1015.7 991.8
08 17.05 ЮВ 10 н/о н/о +22.5 +9.0 42 +24 +24 комфорт 1016.5 992.6
09 17.05 ЮВ 6 н/о н/о +20.2 +9.5 50 +21 +21 комфорт 1017.3 993.3
11 17.05 ЮВ 7 н/о н/о +18.5 +11.1 62 +18 +18 1018.8 994.8
12 17.05 ЮВ 7 н/о н/о +17.8 +11.6 67 +17 +17 1018.8 994.8
14 17.05 В 6 н/о н/о +16.2 +11.2 72 +15 +15 1018.3 994.3 +28.5
15 17.05 ЮВ 4 н/о н/о +14.6 +10.4 76 +13 +13 1018.3 994.3
17 17.05 В 5 н/о н/о +13.3 +9.9 80 +11 +11 1017.5 993.5
18 17.05 В 4 н/о н/о +12.8 +9.4 80 +11 +11 1017.5 993.5
20 17.05 ЮВ 4 н/о н/о +11.1 +8.3 83 +9 +9 1018.0 994.0
21 17.05 ЮВ 5 н/о н/о +10.5 +7.9 84 +8 +8 1018.5 994.5
23 17.05 В 6 н/о н/о +16.9 +10.1 64 +16 +16 1019.4 995.4
00 18.05 В 7 н/о н/о +20.0 +11.2 57 +21 +21 комфорт 1019.5 995.5
02 18.05 ЮВ 9 н/о н/о +23.9 +10.6 43 +25 +25 комфорт 1018.0 994.0 +10.2
03 18.05 ЮВ 9 н/о н/о +25.7 +9.9 37 +26 +26 жарко 1017.0 993.1
05 18.05 ЮВ 8 н/о н/о +26.5 +9.4 34 +27 +27 жарко 1015.4 991.5
06 18.05 ЮВ 9 н/о н/о +26.4 +8.8 33 +27 +27 жарко 1015.3 991.4
08 18.05 ЮВ 6 н/о н/о +23.1 +8.4 39 +24 +24 комфорт 1015.6 991.7
09 18.05 ЮВ 5 н/о н/о +21.6 +7.8 41 +23 +23 комфорт 1015.9 992.0
11 18.05 ЮВ 4 н/о н/о +17.6 +6.2 47 +17 +17 1017.0 993.1
12 18.05 ЮВ 4 н/о н/о +16.9 +5.5 47 +16 +16 1017.5 993.5
14 18.05 ЮВ 5 н/о н/о +17.4 +6.0 47 +17 +17 1017.2 993.2 +27.2
15 18.05 ЮВ 5 н/о н/о +16.8 +6.3 50 +16 +16 1016.4 992.5
17 18.05 ЮВ 3 н/о н/о +11.6 +4.8 63 +10 +10 1016.1 992.2
18 18.05 ЮВ 4 н/о н/о +10.6 +4.5 66 +8 +8 1016.1 992.2
20 18.05 ЮВ 2 н/о н/о +9.2 +4.2 71 +8 +8 1016.3 992.4
21 18.05 ЮВ 3 н/о н/о +9.1 +4.9 75 +7 +7 1016.7 992.8
23 18.05 В 6 н/о н/о +19.3 +9.8 54 +20 +20 1017.7 993.7
00 19.05 В 5 н/о н/о +23.2 +11.3 47 +25 +25 комфорт 1017.6 993.6
02 19.05 ЮВ 9 н/о н/о +26.7 +9.5 34 +27 +27 жарко 1016.0 992.1 +9.0
03 19.05 В 6 н/о н/о +27.4 +9.3 32 +28 +28 жарко 1015.3 991.4
05 19.05 ЮВ 6 н/о н/о +27.3 +8.7 31 +27 +27 жарко 1014.2 990.3
06 19.05 ЮВ 7 н/о н/о +28.4 +8.7 29 +28 +28 жарко 1014.0 990.1
08 19.05 ЮВ 5 н/о 9/0
[]
+25.6 +8.1 33 +26 +26 жарко 1015.0 991.1
09 19.05 ЮВ 6 н/о н/о +24.3 +7.4 34 +25 +25 комфорт 1015.6 991.7
11 19.05 ЮВ 7 н/о 9/0
[]
+22.6 +7.2 37 +23 +23 комфорт 1016.9 993.0
12 19.05 ЮВ 7 н/о н/о +21.6 +7.1 39 +22 +22 комфорт 1017.4 993.4
14 19.05 ЮВ 6 н/о 10/0 2000 м
[]
+19.6 +7.0 44 +20 +20 1016.9 993.0 +29.2
15 19.05 ЮВ 4 н/о н/о +19.2 +7.3 46 +20 +20 1016.9 993.0
17 19.05 ЮВ 5 н/о 5/0
[]
+18.0 +6.8 48 +18 +18 1016.3 992.4
18 19.05 ЮВ 5 н/о н/о +17.1 +6.9 51 +17 +17 1016.0 992.1
20 19.05 ЮВ 4 н/о н/о +15.6 +7.1 57 +15 +15 1016.2 992.3
21 19.05 ЮВ 4 н/о н/о +15.7 +8.0 60 +15 +15 1016.9 993.0
23 19.05 В 6 н/о н/о +21.4 +9.3 46 +23 +23 комфорт 1018.1 994.1
00 20.05 В 6 н/о н/о +24.7 +12.6 47 +27 +27 жарко 1018.3 994.3
02 20.05 В 8 н/о н/о +27.2 +10.8 36 +28 +28 жарко 1017.6 993.6 +15.0
03 20.05 В 8 н/о н/о +28.1 +10.3 33 +29 +29 жарко 1016.7 992.8
05 20.05 В 7 н/о 3/0 2000 м
[]
+28.6 +8.3 28 +28 +30 жарко 1015.7 991.8
06 20.05 ЮВ 7 н/о н/о +28.0 +7.8 28 +28 +28 жарко 1015.9 992.0
08 20.05 ЮВ 5 н/о н/о +24.9 +7.1 32 +25 +25 комфорт 1016.6 992.7
09 20.05 ЮВ 5 н/о н/о +22.9 +6.6 35 +24 +24 комфорт 1017.5 993.5
11 20.05 ЮВ 7 н/о н/о +21.8 +5.7 35 +22 +22 комфорт 1019.0 995.0
12 20.05 ЮВ 7 н/о н/о +21.0 +5.0 35 +22 +22 комфорт 1019.2 995.2
14 20.05 ЮВ 4 н/о 4/0 2000 м
[]
+17.8 +4.7 42 +18 +18 1019.2 995.2 +29.8
15 20.05 ЮВ 5 н/о н/о +18.5 +4.7 40 +18 +18 1018.8 994.8
17 20.05 ЮВ 5 н/о н/о +16.0 +3.8 44 +15 +15 1017.9 993.9
18 20.05 ЮВ 5 н/о н/о +15.2 +3.4 45 +14 +14 1017.8 993.8
20 20.05 ЮВ 4 н/о н/о +13.3 +3.1 50 +12 +12 1019.0 995.0
21 20.05 ЮВ 6 н/о н/о +14.1 +3.3 48 +12 +12 1019.4 995.4
23 20.05 ЮВ 7 н/о н/о +18.5 +3.2 36 +18 +18 1020.7 996.7
00 21.05 ЮВ 6 н/о н/о +21.5 +3.7 31 +22 +22 комфорт 1020.7 996.7

 

Местоположение метеостанции Richmond Airport (Квинсленд, Австралия): широта -20.70 долгота 143.11 высота над уровнем моря 207 м.

В архиве по умолчанию представлена погода в Richmond Airport за последнюю неделю. Архивные данные за месяц целиком и за предыдущие месяцы, начиная с января 2011 года, Вы можете получить, выбрав интересующий диапазон дат из раскрывающегося списка и нажав кнопку "Ввод!".


*Определитесь, кто Вы:
робот инопланетянин человек

Внимание! Время в таблицах - всемирное. Для получения местного времени необходимо прибавить поправку, которая в Richmond Airport равна 10 ч.

Смотрите также архив погоды в соседних городах и на ближайших метеорологических станциях:

Погода в Hughenden Airport (Квинсленд, Австралия) (117 км)
Погода в Julia Creek Airport (Квинсленд, Австралия) (144 км)
Погода в Winton Airport (Квинсленд, Австралия) (186 км)
Погода в Trepell Airport (Квинсленд, Австралия) (263 км)
Погода в Georgetown Airport (Квинсленд, Австралия) (271 км)
Погода в Cloncurry Composite (Квинсленд, Австралия) (272 км)
Погода в Longreach Airport (Квинсленд, Австралия) (327 км)
Погода в Phosphate Hill Airport (Квинсленд, Австралия) (353 км)
Погода в Lake Julius Aws (Квинсленд, Австралия) (358 км)
Погода в Mount Isa (Квинсленд, Австралия) (378 км)

Пояснения к столбцам:

Ветер - указаны скорость ветра в м/с - средняя за 10 мин, порывы в срок и между сроками (в фигурных скобках) и направление, откуда дует ветер: С - северный, СВ - северо-восточный, В - восточный, ЮВ - юго-восточный, Ю - южный, ЮЗ - юго-западный, З - западный, СЗ - северо-западный.
Видимость - горизонтальная дальность видимости в метрах или километрах. При видимости от 1 до 10 км при отсутствии осадков обычно наблюдается дымка, при ухудшении видимости до 1 км и менее - туман. В сухую погоду видимость может ухудшаться дымом, пылью или мглою.
Явления - указаны атмосферные явления, наблюдавшиеся в срок или в последний час перед сроком; фигурными скобками обозначены явления, наблюдавшиеся между сроками (за 1-3 часа до срока); квадратными скобками обозначены град или гололедные отложения с указанием их диаметра в мм.
Облачность - указаны через наклонную черту общая и нижняя облачность в баллах и высота нижней границы облаков в метрах; квадратными скобками обозначены формы облаков: Ci - перистые, Cs - перисто-слоистые, Cc - перисто-кучевые, Ac - высококучевые, As - высокослоистые, Sc - слоисто-кучевые, Ns - слоисто-дождевые, Cu - кучевые, Cb - кучево-дождевые. Подробнее классификацию облаков см. в Атласе облаков (PDF).
T - Температура воздуха - температура, измеренная на высоте 2 м над землей.
Td - Температура точки росы - температура, при понижении до которой содержащийся в воздухе водяной пар достигнет насыщения.
f - Относительная влажность воздуха - влажноcть воздуха, измеренная на высоте 2 м над землей.
Te - Эффективная температура - температура, которую ощущает одетый по сезону человек в тени. Характеристика душности погоды. При расчете учитывается влияние влажности воздуха и скорости ветра на теплоощущения человека.
Tes - Эффективная температура на солнце - температура, которую ощущает человек, с поправкой на солнечный нагрев. Характеристика знойности погоды. Зависит от высоты солнца над горизонтом, облачности и скорости ветра. Ночью, в пасмурную погоду, а также при ветре 12 м/с и более поправка равна нулю.
P - Атмосферное давление - приведенное к уровню моря атмосферное давление.
Po - Атмосферное давление - измеренное на уровне метеостанции атмосферное давление.
Tmin - Минимальная температура - минимум температуры воздуха на высоте 2 м над землей.
Tmax - Максимальная температура - максимум температуры воздуха на высоте 2 м над землей.
R - Количество осадков - Количество выпавших осадков за период времени, мм. При наведении курсора мыши на число - период времени, за который выпало указанное количество осадков.
R24 - Количество осадков - Количество выпавших осадков за 24 часа, мм.
S - Снежный покров - Высота снежного покрова, см. При наведении курсора мыши на число - состояние снежного покрова и степень покрытия местности в баллах.